Location: San Martino di Castrozza
(46.2667°N, 11.8000°E)
Time: 16:35:33
(UTC+00:00)

Cosmos 2016 Rocket - Pass Details

Date: 23 April 2021
Orbit: 947 x 1000 km, 83.0° (Epoch: 12 May)

Event Time Altitude Azimuth Distance (km) Brightness Sun altitude
Rises 03:22:23 0° 351° (N) 3,733 7.3 -8.7°
Reaches altitude 10° 03:24:56 10° 352° (N) 2,776 6.7 -8.3°
Maximum altitude 03:31:20 88° 80° (E) 999 4.1 -7.3°
Drops below altitude 10° 03:37:38 10° 173° (S) 2,730 6.2 -6.3°
Sets 03:40:07 0° 173° (S) 3,666 6.8 -5.9°
